Weather History for Bartow, FL

Change the Weather History Date:

Saturday, August 31, 2013

  Actual Average Record
Temperature  
Mean Temperature 80 °F -  
Max Temperature 89 °F 91 °F 96 °F (1964)
Min Temperature 71 °F 71 °F 67 °F (1975)
Cooling Degree Days 15    
Growing Degree Days 30 (Base 50)    
Moisture  
Dew Point 70 °F    
Average Humidity 81    
Maximum Humidity 100    
Minimum Humidity 49    
Precipitation  
Precipitation 0.00 in - - ()
Sea Level Pressure  
Sea Level Pressure 29.95 in    
Wind  
Wind Speed 3 mph (SSW)    
Max Wind Speed 12 mph    
Max Gust Speed -    
Visibility 9 miles    
Events Thunderstorm    
Averages and records for this station are not official NWS values.
T = Trace of Precipitation, MM = Missing Value Source: NWS Daily Summary

Daily Weather History Graph

Daily Weather History Graph

Search for Another Location

Airport:

Trip Planner

Search our weather history database for the weather conditions in past years. The results will help you decide how hot, cold, wet, or windy it might be!

Date:

Astronomy

Aug. 31, 2013 Rise Set
Actual Time 7:05 AM EDT 7:48 PM EDT
Civil Twilight 6:41 AM EDT 8:12 PM EDT
Nautical Twilight 6:13 AM EDT 8:40 PM EDT
Astronomical Twilight 5:44 AM EDT 9:09 PM EDT
Moon 2:47 AM EDT (8/31) 4:33 PM EDT (8/31)
Length of Visible Light 13h 31m
Length of Day
12h 43m
Waning Crescent, 21% of the Moon is Illuminated
Aug 31
Waning Crescent
Sep 5
New
Sep 12
First Quarter
Sep 19
Full
Sep 26
Last Quarter

Hourly Weather History & Observations

Time (EDT) Temp. Heat Index Dew Point Humidity Pressure Visibility Wind Dir Wind Speed Gust Speed Precip Events Conditions
12:15 AM 73.4 °F - 73.4 °F 100% 29.97 in 9.0 mi Calm Calm - N/A   Clear
12:35 AM 73.4 °F - 73.4 °F 100% 29.97 in 9.0 mi Calm Calm - N/A   Clear
12:55 AM 73.4 °F - 73.4 °F 100% 29.96 in 9.0 mi Calm Calm - N/A   Clear
1:15 AM 73.4 °F - 73.4 °F 100% 29.97 in 9.0 mi Calm Calm - N/A   Clear
1:35 AM 73.4 °F - 73.4 °F 100% 29.96 in 8.0 mi Calm Calm - N/A   Clear
1:55 AM 73.4 °F - 73.4 °F 100% 29.95 in 9.0 mi South 3.5 mph - N/A   Clear
2:15 AM 71.6 °F - 71.6 °F 100% 29.95 in 8.0 mi South 3.5 mph - N/A   Clear
2:35 AM 71.6 °F - 71.6 °F 100% 29.94 in 9.0 mi South 3.5 mph - N/A   Clear
2:55 AM 71.6 °F - 71.6 °F 100% 29.93 in 10.0 mi Calm Calm - N/A   Clear
3:15 AM 71.6 °F - 71.6 °F 100% 29.93 in 10.0 mi Calm Calm - N/A   Clear
3:35 AM 71.6 °F - 71.6 °F 100% 29.93 in 9.0 mi Calm Calm - N/A   Clear
3:55 AM 71.6 °F - 71.6 °F 100% 29.93 in 8.0 mi Calm Calm - N/A   Clear
4:15 AM 71.6 °F - 71.6 °F 100% 29.93 in 9.0 mi Calm Calm - N/A   Clear
4:55 AM 71.6 °F - 71.6 °F 100% 29.93 in 10.0 mi Calm Calm - N/A   Clear
5:15 AM 71.6 °F - 71.6 °F 100% 29.93 in 9.0 mi Calm Calm - N/A   Clear
5:35 AM 71.6 °F - 71.6 °F 100% 29.93 in 9.0 mi Calm Calm - N/A   Clear
5:55 AM 71.6 °F - 71.6 °F 100% 29.93 in 9.0 mi Calm Calm - N/A   Clear
6:15 AM 71.6 °F - 71.6 °F 100% 29.94 in 9.0 mi Calm Calm - N/A   Clear
6:35 AM 71.6 °F - 71.6 °F 100% 29.95 in 10.0 mi Calm Calm - N/A   Clear
6:55 AM 71.6 °F - 71.6 °F 100% 29.96 in 10.0 mi Calm Calm - N/A   Clear
7:15 AM 71.6 °F - 71.6 °F 100% 29.96 in 7.0 mi Calm Calm - N/A   Clear
3:35 PM 89.6 °F 94.7 °F 69.8 °F 52% 29.94 in - SW 10.4 mph - N/A   Partly Cloudy
3:55 PM 89.6 °F 94.7 °F 69.8 °F 52% 29.93 in - South 9.2 mph - N/A   Scattered Clouds
4:15 PM 87.8 °F 92.6 °F 69.8 °F 55% 29.93 in - WSW 10.4 mph - N/A Thunderstorm Thunderstorm
4:35 PM 87.8 °F 92.6 °F 69.8 °F 55% 29.92 in - West 11.5 mph - N/A   Scattered Clouds
4:55 PM 87.8 °F 90.4 °F 66.2 °F 49% 29.92 in - West 10.4 mph - N/A   Scattered Clouds
5:15 PM 87.8 °F 90.4 °F 66.2 °F 49% 29.92 in - WSW 9.2 mph - N/A   Partly Cloudy
5:35 PM 87.8 °F 90.4 °F 66.2 °F 49% 29.92 in 8.0 mi West 9.2 mph - N/A   Partly Cloudy
5:55 PM 87.8 °F 90.4 °F 66.2 °F 49% 29.93 in 8.0 mi West 6.9 mph - N/A   Partly Cloudy
6:15 PM 87.8 °F 90.4 °F 66.2 °F 49% 29.93 in 8.0 mi SW 6.9 mph - N/A Thunderstorm Partly Cloudy
6:35 PM 87.8 °F 90.4 °F 66.2 °F 49% 29.92 in 8.0 mi WSW 8.1 mph - N/A   Clear
6:55 PM 86.0 °F 89.4 °F 68.0 °F 55% 29.93 in 9.0 mi WSW 8.1 mph - N/A   Clear
7:15 PM 84.2 °F 87.3 °F 68.0 °F 58% 29.94 in 8.0 mi SW 6.9 mph - N/A   Clear
7:35 PM 82.4 °F 86.3 °F 69.8 °F 66% 29.94 in 8.0 mi South 3.5 mph - N/A   Clear
7:55 PM 82.4 °F 86.3 °F 69.8 °F 66% 29.94 in 9.0 mi SW 4.6 mph - N/A   Clear
8:15 PM 80.6 °F 83.9 °F 69.8 °F 70% 29.95 in 10.0 mi South 5.8 mph - N/A   Partly Cloudy
8:35 PM 78.8 °F - 69.8 °F 74% 29.95 in 10.0 mi South 6.9 mph - N/A   Scattered Clouds
8:55 PM 78.8 °F - 68.0 °F 69% 29.96 in 10.0 mi SSE 6.9 mph - N/A   Scattered Clouds
9:15 PM 77.0 °F - 68.0 °F 74% 29.97 in 10.0 mi SSE 8.1 mph - N/A   Partly Cloudy
9:35 PM 75.2 °F - 69.8 °F 83% 29.99 in 9.0 mi SE 5.8 mph - N/A   Partly Cloudy
9:55 PM 77.0 °F - 69.8 °F 78% 30.00 in 10.0 mi SSE 6.9 mph - N/A   Mostly Cloudy
10:15 PM 77.0 °F - 69.8 °F 78% 30.00 in 10.0 mi SSE 5.8 mph - N/A   Mostly Cloudy
10:35 PM 75.2 °F - 69.8 °F 83% 30.00 in 9.0 mi SSE 5.8 mph - N/A   Partly Cloudy
10:55 PM 75.2 °F - 69.8 °F 83% 30.00 in 10.0 mi SSE 6.9 mph - N/A   Clear
11:15 PM 73.4 °F - 71.6 °F 94% 30.00 in 9.0 mi Calm Calm - N/A   Clear
11:35 PM 73.4 °F - 71.6 °F 94% 29.99 in 10.0 mi Calm Calm - N/A   Clear
11:55 PM 73.4 °F - 71.6 °F 94% 29.99 in 10.0 mi SSE 3.5 mph - N/A   Clear